CGJCB TNCM-GMMN

Flight info

Callsign CGJCB
Flight time N/A
Altitude 35000
Route MODOR2 MNOLO M576 RKDIA DCT 21N050W 25N040W 30N030W 32N020W DCT ABALO/N0463F350 DCT NIPRI DCT NEVTU DCT IBLIV DCT NISBA UH500 RAVOL
Aircraft CL60/M-SBDE1E2E3FGHIJ1J4J5J7M3RWXYZ/LB1V1D1

Departure

Time N/A
Airport Princess Juliana International Airport (TNCM)

Arrival

Time 2026-05-07 17:40
Airport Mohammed V International Airport (GMMN)
Time Latitude Longitude Altitude Speed Heading
2026-05-07 15:30 31.19206 -24.57014 35039 ft 552 kts 69°
2026-05-07 15:31 31.20929 -24.48215 35036 ft 552 kts 70°
2026-05-07 15:31 31.22639 -24.39445 35037 ft 552 kts 69°
2026-05-07 15:32 31.24342 -24.30684 35028 ft 552 kts 69°
2026-05-07 15:32 31.26038 -24.21924 35029 ft 553 kts 70°
2026-05-07 15:33 31.27746 -24.13066 35028 ft 554 kts 70°
2026-05-07 15:33 31.29442 -24.04236 35029 ft 555 kts 69°
2026-05-07 15:34 31.31133 -23.95398 35022 ft 554 kts 69°
2026-05-07 15:34 31.32823 -23.86526 35022 ft 554 kts 69°
2026-05-07 15:35 31.34489 -23.77744 35024 ft 554 kts 70°
2026-05-07 15:35 31.36150 -23.68894 35022 ft 554 kts 70°
2026-05-07 15:36 31.37818 -23.60023 35019 ft 555 kts 70°
2026-05-07 15:36 31.39478 -23.51175 35018 ft 557 kts 69°
2026-05-07 15:37 31.41140 -23.42280 35020 ft 557 kts 70°
2026-05-07 15:37 31.42790 -23.33413 35028 ft 557 kts 70°
2026-05-07 15:38 31.44437 -23.24520 35020 ft 557 kts 71°
2026-05-07 15:38 31.46094 -23.15539 35017 ft 558 kts 71°
2026-05-07 15:39 31.47718 -23.06689 35028 ft 559 kts 71°
2026-05-07 15:39 31.49351 -22.97770 35018 ft 558 kts 71°
2026-05-07 15:40 31.50983 -22.88844 35018 ft 558 kts 71°
2026-05-07 15:40 31.52609 -22.79930 35026 ft 558 kts 70°
2026-05-07 15:41 31.54227 -22.71008 35017 ft 558 kts 71°
2026-05-07 15:41 31.55846 -22.62043 35018 ft 558 kts 71°
2026-05-07 15:42 31.57456 -22.53078 35012 ft 557 kts 71°
2026-05-07 15:42 31.59045 -22.44156 35021 ft 557 kts 71°
2026-05-07 15:43 31.60643 -22.35185 35029 ft 557 kts 71°
2026-05-07 15:43 31.62221 -22.26249 35019 ft 558 kts 72°
2026-05-07 15:44 31.63793 -22.17312 35002 ft 558 kts 72°
2026-05-07 15:44 31.65358 -22.08375 35022 ft 556 kts 72°
2026-05-07 15:45 31.66930 -21.99370 35013 ft 557 kts 72°
2026-05-07 15:45 31.68483 -21.90435 35015 ft 557 kts 72°
2026-05-07 15:46 31.70809 -21.76993 35010 ft 557 kts 73°
2026-05-07 15:47 31.72327 -21.68100 35086 ft 556 kts 73°
2026-05-07 15:47 31.73856 -21.59120 35026 ft 556 kts 73°
2026-05-07 15:48 31.75374 -21.50183 35004 ft 560 kts 73°
2026-05-07 15:48 31.76893 -21.41210 35009 ft 560 kts 73°
2026-05-07 15:49 31.78410 -21.32212 34971 ft 558 kts 74°
2026-05-07 15:49 31.79925 -21.23193 34963 ft 558 kts 74°
2026-05-07 15:50 31.81428 -21.14208 34994 ft 558 kts 73°
2026-05-07 15:50 31.82919 -21.05259 34989 ft 559 kts 75°
2026-05-07 15:51 31.84422 -20.96204 34991 ft 559 kts 75°
2026-05-07 15:51 31.85910 -20.87192 35006 ft 559 kts 74°
2026-05-07 15:52 31.87382 -20.78237 34986 ft 556 kts 75°
2026-05-07 15:52 31.88854 -20.69244 35008 ft 556 kts 74°
2026-05-07 15:53 31.90314 -20.60290 35010 ft 556 kts 75°
2026-05-07 15:53 31.91770 -20.51317 34995 ft 557 kts 75°
2026-05-07 15:54 31.93225 -20.42305 34995 ft 557 kts 75°
2026-05-07 15:54 31.94668 -20.33322 35002 ft 557 kts 76°
2026-05-07 15:55 31.96102 -20.24355 35001 ft 556 kts 75°
2026-05-07 15:55 31.97536 -20.15347 34998 ft 556 kts 76°
2026-05-07 15:56 31.98955 -20.06390 34997 ft 556 kts 75°
2026-05-07 15:56 32.00436 -19.97407 34990 ft 554 kts 73°
2026-05-07 15:57 32.02071 -19.88564 34995 ft 555 kts 74°
2026-05-07 15:57 32.03713 -19.79641 34987 ft 555 kts 74°
2026-05-07 15:58 32.05342 -19.70746 34989 ft 555 kts 74°
2026-05-07 15:58 32.06965 -19.61851 34986 ft 555 kts 74°
2026-05-07 15:59 32.08590 -19.52901 34988 ft 554 kts 74°
2026-05-07 15:59 32.10206 -19.43964 34988 ft 554 kts 74°
2026-05-07 16:00 32.11799 -19.35113 34993 ft 555 kts 75°
2026-05-07 16:00 32.13399 -19.26185 34983 ft 554 kts 75°
2026-05-07 16:01 32.14996 -19.17242 34994 ft 554 kts 75°
2026-05-07 16:01 32.16594 -19.08249 34983 ft 554 kts 75°
2026-05-07 16:02 32.18176 -18.99312 34992 ft 554 kts 75°
2026-05-07 16:02 32.19754 -18.90411 34984 ft 554 kts 76°
2026-05-07 16:03 32.21331 -18.81467 34987 ft 554 kts 75°
2026-05-07 16:03 32.22897 -18.72527 34987 ft 555 kts 76°
2026-05-07 16:04 32.24462 -18.63551 34988 ft 555 kts 76°
2026-05-07 16:04 32.26019 -18.54573 34986 ft 555 kts 76°
2026-05-07 16:05 32.27557 -18.45671 34982 ft 555 kts 76°
2026-05-07 16:05 32.29108 -18.36679 34986 ft 555 kts 76°
2026-05-07 16:06 32.30642 -18.27716 34979 ft 555 kts 77°
2026-05-07 16:06 32.32160 -18.18794 34984 ft 555 kts 77°
2026-05-07 16:07 32.33717 -18.09815 34983 ft 555 kts 76°
2026-05-07 16:07 32.35371 -18.00831 34988 ft 555 kts 77°
2026-05-07 16:08 32.37005 -17.91909 34980 ft 555 kts 77°
2026-05-07 16:08 32.38634 -17.82984 34982 ft 555 kts 77°
2026-05-07 16:09 32.40270 -17.73980 34981 ft 555 kts 77°
2026-05-07 16:09 32.41887 -17.65025 34983 ft 556 kts 77°
2026-05-07 16:10 32.43491 -17.56092 34979 ft 556 kts 77°
2026-05-07 16:10 32.45108 -17.47067 34974 ft 557 kts 77°
2026-05-07 16:11 32.46722 -17.38030 34977 ft 558 kts 77°
2026-05-07 16:11 32.48316 -17.29026 34979 ft 559 kts 78°
2026-05-07 16:12 32.49916 -17.19956 34974 ft 559 kts 78°
2026-05-07 16:12 32.51500 -17.10935 34976 ft 559 kts 79°
2026-05-07 16:13 32.53072 -17.01950 34975 ft 559 kts 79°
2026-05-07 16:13 32.54642 -16.92932 34976 ft 558 kts 79°
2026-05-07 16:14 32.56215 -16.83857 34987 ft 558 kts 79°
2026-05-07 16:14 32.57781 -16.74782 34986 ft 560 kts 79°
2026-05-07 16:15 32.59338 -16.65725 34984 ft 561 kts 79°
2026-05-07 16:15 32.60902 -16.56582 34985 ft 561 kts 79°
2026-05-07 16:16 32.62448 -16.47498 34981 ft 561 kts 79°
2026-05-07 16:16 32.63992 -16.38393 34977 ft 561 kts 79°
2026-05-07 16:17 32.65526 -16.29299 34978 ft 561 kts 80°
2026-05-07 16:17 32.67056 -16.20193 34968 ft 560 kts 80°
2026-05-07 16:18 32.68584 -16.11046 34970 ft 561 kts 81°
2026-05-07 16:18 32.70101 -16.01932 34967 ft 561 kts 81°
2026-05-07 16:19 32.71610 -15.92816 34971 ft 562 kts 80°
2026-05-07 16:19 32.73115 -15.83688 34970 ft 562 kts 81°
2026-05-07 16:20 32.74610 -15.74576 34970 ft 562 kts 81°
2026-05-07 16:20 32.76080 -15.65571 34972 ft 561 kts 81°
2026-05-07 16:21 32.77559 -15.56465 34971 ft 560 kts 81°
2026-05-07 16:21 32.79035 -15.47344 34971 ft 560 kts 81°
2026-05-07 16:22 32.80494 -15.38279 34968 ft 560 kts 81°
2026-05-07 16:22 32.81958 -15.29137 34971 ft 561 kts 82°
2026-05-07 16:23 32.83408 -15.20036 34968 ft 561 kts 82°
2026-05-07 16:23 32.84868 -15.10836 34968 ft 561 kts 82°
2026-05-07 16:24 32.86303 -15.01745 34982 ft 561 kts 82°
2026-05-07 16:24 32.87734 -14.92607 34991 ft 562 kts 82°
2026-05-07 16:25 32.89170 -14.83425 34987 ft 562 kts 82°
2026-05-07 16:25 32.90594 -14.74272 34983 ft 560 kts 82°
2026-05-07 16:26 32.92001 -14.65175 34988 ft 560 kts 82°
2026-05-07 16:26 32.93402 -14.56072 34989 ft 559 kts 82°
2026-05-07 16:27 32.94791 -14.47007 34990 ft 558 kts 83°
2026-05-07 16:27 32.96185 -14.37856 34990 ft 557 kts 83°
2026-05-07 16:28 32.97554 -14.28819 34990 ft 556 kts 83°
2026-05-07 16:28 32.98931 -14.19690 34991 ft 555 kts 83°
2026-05-07 16:29 32.99932 -14.10584 34988 ft 549 kts 94°
2026-05-07 16:29 32.99781 -14.01536 34989 ft 546 kts 96°
2026-05-07 16:30 32.99585 -13.92442 34983 ft 546 kts 96°
2026-05-07 16:30 32.99383 -13.83417 34985 ft 546 kts 96°
2026-05-07 16:31 32.99171 -13.74310 34971 ft 546 kts 96°
2026-05-07 16:31 32.98954 -13.65267 34977 ft 546 kts 96°
2026-05-07 16:32 32.98727 -13.56148 34984 ft 548 kts 96°
2026-05-07 16:32 32.98497 -13.47143 34968 ft 545 kts 97°
2026-05-07 16:33 32.98259 -13.38112 34973 ft 544 kts 96°
2026-05-07 16:33 32.98013 -13.29052 34978 ft 545 kts 97°
2026-05-07 16:34 32.98367 -13.19954 34970 ft 552 kts 86°
2026-05-07 16:34 32.99404 -13.10886 34969 ft 553 kts 86°
2026-05-07 16:35 33.00427 -13.01816 34970 ft 553 kts 86°
2026-05-07 16:35 33.01441 -12.92767 34962 ft 553 kts 86°
2026-05-07 16:36 33.02451 -12.83675 34970 ft 553 kts 86°
2026-05-07 16:36 33.03452 -12.74589 34965 ft 553 kts 86°
2026-05-07 16:37 33.04452 -12.65459 34966 ft 551 kts 86°
2026-05-07 16:37 33.05436 -12.56398 34970 ft 551 kts 86°
2026-05-07 16:38 33.06409 -12.47366 34969 ft 551 kts 86°
2026-05-07 16:38 33.07387 -12.38241 34966 ft 550 kts 86°
2026-05-07 16:39 33.08351 -12.29182 34968 ft 549 kts 86°
2026-05-07 16:39 33.09308 -12.20123 34972 ft 548 kts 86°
2026-05-07 16:40 33.10252 -12.11111 34963 ft 548 kts 86°
2026-05-07 16:40 33.11202 -12.02045 34970 ft 548 kts 86°
2026-05-07 16:41 33.12146 -11.92960 34968 ft 548 kts 86°
2026-05-07 16:41 33.13078 -11.83912 34971 ft 548 kts 86°
2026-05-07 16:42 33.14182 -11.74925 34967 ft 549 kts 84°
2026-05-07 16:42 33.15358 -11.65892 34970 ft 549 kts 83°
2026-05-07 16:43 33.16520 -11.56879 34968 ft 548 kts 84°
2026-05-07 16:43 33.17670 -11.47883 34963 ft 548 kts 83°
2026-05-07 16:44 33.18811 -11.38888 34958 ft 547 kts 84°
2026-05-07 16:44 33.19949 -11.29851 34956 ft 546 kts 84°
2026-05-07 16:45 33.21076 -11.20832 34957 ft 546 kts 84°
2026-05-07 16:45 33.22198 -11.11792 34950 ft 546 kts 84°
2026-05-07 16:46 33.23306 -11.02801 34952 ft 546 kts 84°
2026-05-07 16:46 33.24405 -10.93826 34952 ft 546 kts 84°
2026-05-07 16:47 33.25494 -10.84882 34949 ft 546 kts 84°
2026-05-07 16:47 33.26579 -10.75905 34948 ft 545 kts 84°
2026-05-07 16:48 33.27661 -10.66890 34950 ft 545 kts 83°
2026-05-07 16:48 33.28729 -10.57948 34948 ft 544 kts 84°
2026-05-07 16:49 33.29793 -10.48975 34950 ft 544 kts 83°
2026-05-07 16:49 33.30853 -10.39982 34951 ft 543 kts 83°
2026-05-07 16:50 33.31899 -10.31053 34948 ft 543 kts 84°
2026-05-07 16:50 33.32941 -10.22091 34947 ft 542 kts 84°
2026-05-07 16:51 33.33976 -10.13143 34945 ft 542 kts 84°
2026-05-07 16:51 33.35000 -10.04225 34902 ft 542 kts 84°
2026-05-07 16:51 33.35513 -9.99739 34770 ft 543 kts 84°
2026-05-07 16:52 33.36024 -9.95243 34651 ft 542 kts 84°
2026-05-07 16:52 33.36531 -9.90783 34531 ft 541 kts 84°
2026-05-07 16:52 33.37041 -9.86272 34406 ft 541 kts 84°
2026-05-07 16:52 33.37534 -9.81823 34297 ft 540 kts 84°
2026-05-07 16:53 33.38031 -9.77333 34170 ft 540 kts 84°
2026-05-07 16:53 33.38526 -9.72852 34051 ft 541 kts 84°
2026-05-07 16:53 33.39016 -9.68423 33928 ft 541 kts 84°
2026-05-07 16:53 33.39512 -9.63931 33809 ft 541 kts 84°
2026-05-07 16:54 33.40005 -9.59472 33655 ft 542 kts 84°
2026-05-07 16:54 33.40500 -9.54969 33082 ft 547 kts 84°
2026-05-07 16:54 33.40994 -9.50475 32504 ft 539 kts 84°
2026-05-07 16:54 33.41475 -9.46090 32297 ft 530 kts 84°
2026-05-07 16:55 33.41955 -9.41696 32102 ft 529 kts 84°
2026-05-07 16:55 33.42432 -9.37314 31909 ft 529 kts 84°
2026-05-07 16:55 33.42913 -9.32888 31710 ft 530 kts 84°
2026-05-07 16:55 33.43386 -9.28535 31515 ft 529 kts 84°
2026-05-07 16:56 33.43862 -9.24139 31318 ft 527 kts 84°
2026-05-07 16:56 33.44329 -9.19807 31121 ft 526 kts 84°
2026-05-07 16:56 33.45269 -9.11056 30064 ft 525 kts 84°
2026-05-07 16:57 33.45725 -9.06782 29422 ft 517 kts 84°
2026-05-07 16:57 33.46003 -9.02487 28756 ft 508 kts 92°
2026-05-07 16:57 33.45965 -8.98285 28037 ft 502 kts 89°
2026-05-07 16:57 33.46402 -8.94167 27426 ft 497 kts 82°
2026-05-07 16:58 33.46949 -8.90079 26753 ft 492 kts 82°
2026-05-07 16:58 33.47489 -8.86049 26120 ft 488 kts 83°
2026-05-07 16:58 33.48016 -8.82085 25479 ft 483 kts 83°
2026-05-07 16:58 33.48458 -8.78107 24821 ft 476 kts 89°
2026-05-07 16:59 33.48240 -8.74171 24144 ft 464 kts 105°
2026-05-07 16:59 33.47266 -8.70584 23480 ft 449 kts 120°
2026-05-07 16:59 33.45847 -8.67226 22827 ft 442 kts 122°
2026-05-07 16:59 33.44443 -8.63978 22195 ft 437 kts 122°
2026-05-07 17:00 33.43064 -8.60785 21584 ft 433 kts 122°
2026-05-07 17:00 33.41672 -8.57590 20951 ft 429 kts 123°
2026-05-07 17:00 33.40281 -8.54406 20341 ft 425 kts 122°
2026-05-07 17:00 33.38929 -8.51313 19730 ft 420 kts 123°
2026-05-07 17:01 33.37566 -8.48198 19115 ft 416 kts 122°
2026-05-07 17:01 33.36238 -8.45161 18531 ft 412 kts 123°
2026-05-07 17:01 33.34901 -8.42107 17928 ft 408 kts 122°
2026-05-07 17:01 33.33601 -8.39139 17354 ft 404 kts 122°
2026-05-07 17:02 33.32301 -8.36173 16788 ft 400 kts 122°
2026-05-07 17:02 33.31004 -8.33211 16217 ft 395 kts 122°
2026-05-07 17:02 33.29732 -8.30312 15622 ft 389 kts 122°
2026-05-07 17:02 33.28495 -8.27492 15062 ft 381 kts 122°
2026-05-07 17:03 33.27273 -8.24707 14488 ft 373 kts 122°
2026-05-07 17:03 33.26076 -8.21983 13914 ft 366 kts 122°
2026-05-07 17:03 33.24903 -8.19315 13359 ft 359 kts 122°
2026-05-07 17:03 33.23739 -8.16669 12787 ft 352 kts 122°
2026-05-07 17:04 33.22611 -8.14107 12227 ft 347 kts 121°
2026-05-07 17:04 33.21498 -8.11580 11671 ft 341 kts 121°
2026-05-07 17:04 33.20392 -8.09071 11093 ft 337 kts 121°
2026-05-07 17:04 33.19297 -8.06590 10515 ft 332 kts 121°
2026-05-07 17:05 33.18235 -8.04184 9974 ft 328 kts 121°
2026-05-07 17:05 33.17165 -8.01761 9409 ft 324 kts 120°
2026-05-07 17:05 33.16118 -7.99394 8848 ft 320 kts 120°
2026-05-07 17:05 33.15084 -7.97056 8299 ft 316 kts 120°
2026-05-07 17:06 33.14060 -7.94742 7765 ft 311 kts 120°
2026-05-07 17:06 33.13055 -7.92472 7243 ft 306 kts 120°
2026-05-07 17:06 33.12087 -7.90286 7002 ft 291 kts 120°
2026-05-07 17:06 33.11160 -7.88189 6964 ft 271 kts 120°
2026-05-07 17:07 33.10309 -7.86264 6975 ft 251 kts 120°
2026-05-07 17:07 33.09527 -7.84494 6973 ft 234 kts 120°
2026-05-07 17:07 33.08785 -7.82815 6921 ft 223 kts 119°
2026-05-07 17:07 33.08049 -7.81157 6686 ft 223 kts 119°
2026-05-07 17:08 33.07333 -7.79543 6430 ft 221 kts 119°
2026-05-07 17:08 33.06623 -7.77925 6176 ft 217 kts 115°
2026-05-07 17:08 33.06369 -7.76176 5919 ft 214 kts 82°
2026-05-07 17:08 33.06703 -7.74439 5674 ft 212 kts 76°
2026-05-07 17:09 33.07062 -7.72714 5422 ft 212 kts 76°
2026-05-07 17:09 33.07412 -7.71004 5171 ft 213 kts 76°
2026-05-07 17:09 33.07766 -7.69279 4919 ft 212 kts 75°
2026-05-07 17:09 33.08121 -7.67552 4672 ft 212 kts 75°
2026-05-07 17:10 33.08475 -7.65833 4422 ft 212 kts 74°
2026-05-07 17:10 33.08828 -7.64121 4166 ft 211 kts 74°
2026-05-07 17:10 33.09175 -7.62425 3976 ft 207 kts 73°
2026-05-07 17:10 33.09520 -7.60746 3968 ft 208 kts 73°
2026-05-07 17:11 33.09864 -7.59066 3971 ft 209 kts 73°
2026-05-07 17:11 33.10209 -7.57380 3973 ft 209 kts 73°
2026-05-07 17:11 33.10549 -7.55708 3981 ft 198 kts 73°
2026-05-07 17:11 33.10866 -7.54145 3992 ft 189 kts 73°
2026-05-07 17:12 33.11245 -7.52636 3971 ft 187 kts 58°
2026-05-07 17:12 33.12124 -7.51552 3963 ft 180 kts 24°
2026-05-07 17:12 33.13342 -7.51405 3970 ft 179 kts 350°
2026-05-07 17:12 33.14570 -7.51722 3985 ft 178 kts 347°
2026-05-07 17:13 33.15734 -7.52066 3991 ft 165 kts 345°
2026-05-07 17:13 33.16846 -7.52425 3975 ft 161 kts 345°
2026-05-07 17:13 33.17933 -7.52788 3954 ft 160 kts 344°
2026-05-07 17:13 33.19014 -7.53155 3830 ft 163 kts 344°
2026-05-07 17:14 33.20095 -7.53523 3636 ft 157 kts 344°
2026-05-07 17:14 33.20956 -7.53817 3493 ft 157 kts 344°
2026-05-07 17:14 33.22013 -7.54177 3258 ft 156 kts 344°
2026-05-07 17:14 33.23047 -7.54530 3061 ft 150 kts 345°
2026-05-07 17:15 33.24016 -7.54865 2801 ft 136 kts 345°
2026-05-07 17:15 33.24903 -7.55187 2637 ft 131 kts 342°
2026-05-07 17:15 33.25785 -7.55539 2508 ft 138 kts 343°
2026-05-07 17:15 33.26745 -7.55830 2448 ft 146 kts 346°
2026-05-07 17:16 33.27747 -7.56159 2279 ft 148 kts 347°
2026-05-07 17:16 33.28743 -7.56473 2078 ft 146 kts 347°
2026-05-07 17:16 33.29715 -7.56779 1764 ft 135 kts 345°
2026-05-07 17:16 33.30669 -7.57102 1561 ft 148 kts 347°
2026-05-07 17:17 33.31660 -7.57457 1349 ft 148 kts 347°
2026-05-07 17:17 33.32641 -7.57782 1126 ft 142 kts 347°
2026-05-07 17:17 33.33555 -7.58102 941 ft 131 kts 344°
2026-05-07 17:17 33.34430 -7.58408 781 ft 130 kts 347°
2026-05-07 17:18 33.35287 -7.58707 680 ft 121 kts 347°
2026-05-07 17:18 33.36040 -7.58955 703 ft 128 kts 343°
2026-05-07 17:18 33.37028 -7.59330 1342 ft 166 kts 343°
2026-05-07 17:18 33.38202 -7.59771 2284 ft 203 kts 343°
2026-05-07 17:19 33.39647 -7.60245 3029 ft 220 kts 349°
2026-05-07 17:19 33.41002 -7.60775 3694 ft 201 kts 336°
2026-05-07 17:19 33.42374 -7.61237 3941 ft 205 kts 354°
2026-05-07 17:19 33.43777 -7.61523 3950 ft 205 kts 345°
2026-05-07 17:20 33.45145 -7.62074 3972 ft 205 kts 330°
2026-05-07 17:20 33.46046 -7.63360 3974 ft 208 kts 291°
2026-05-07 17:20 33.46085 -7.65107 3977 ft 212 kts 261°
2026-05-07 17:20 33.45776 -7.66851 3984 ft 213 kts 259°
2026-05-07 17:21 33.45443 -7.68601 3977 ft 213 kts 259°
2026-05-07 17:21 33.44980 -7.70278 3974 ft 215 kts 240°
2026-05-07 17:21 33.43807 -7.71405 3973 ft 220 kts 200°
2026-05-07 17:21 33.42275 -7.71470 3982 ft 222 kts 171°
2026-05-07 17:22 33.40747 -7.71141 3982 ft 221 kts 169°
2026-05-07 17:22 33.39236 -7.70808 3982 ft 221 kts 169°
2026-05-07 17:22 33.37700 -7.70471 3983 ft 222 kts 169°
2026-05-07 17:22 33.36176 -7.70136 3980 ft 221 kts 169°
2026-05-07 17:23 33.34645 -7.69799 3981 ft 221 kts 169°
2026-05-07 17:23 33.33114 -7.69461 3978 ft 222 kts 169°
2026-05-07 17:23 33.31570 -7.69127 3974 ft 222 kts 169°
2026-05-07 17:23 33.30045 -7.68799 3977 ft 222 kts 169°
2026-05-07 17:24 33.28515 -7.68471 3967 ft 222 kts 169°
2026-05-07 17:24 33.26981 -7.68144 3965 ft 223 kts 169°
2026-05-07 17:24 33.25440 -7.67815 3974 ft 223 kts 169°
2026-05-07 17:24 33.23892 -7.67485 3973 ft 222 kts 169°
2026-05-07 17:25 33.22353 -7.67157 3971 ft 222 kts 169°
2026-05-07 17:25 33.20828 -7.66834 3967 ft 222 kts 169°
2026-05-07 17:25 33.19287 -7.66512 3963 ft 223 kts 169°
2026-05-07 17:25 33.17740 -7.66190 3965 ft 223 kts 169°
2026-05-07 17:26 33.16213 -7.65873 3966 ft 219 kts 169°
2026-05-07 17:26 33.14737 -7.65567 3982 ft 207 kts 169°
2026-05-07 17:26 33.13325 -7.65275 3976 ft 204 kts 169°
2026-05-07 17:26 33.11925 -7.64992 3979 ft 202 kts 169°
2026-05-07 17:27 33.10533 -7.64712 3982 ft 203 kts 169°
2026-05-07 17:27 33.09129 -7.64428 3976 ft 202 kts 169°
2026-05-07 17:27 33.07727 -7.64144 3983 ft 202 kts 169°
2026-05-07 17:27 33.06317 -7.63860 3975 ft 201 kts 169°
2026-05-07 17:28 33.04930 -7.63582 3982 ft 201 kts 169°
2026-05-07 17:28 33.03543 -7.63308 3979 ft 201 kts 169°
2026-05-07 17:28 33.02143 -7.63029 3983 ft 201 kts 169°
2026-05-07 17:28 33.00757 -7.62753 3979 ft 201 kts 169°
2026-05-07 17:29 32.99363 -7.62480 3977 ft 202 kts 169°
2026-05-07 17:29 32.97967 -7.62203 3978 ft 203 kts 169°
2026-05-07 17:29 32.96578 -7.61928 3979 ft 203 kts 169°
2026-05-07 17:29 32.95179 -7.61646 3978 ft 202 kts 169°
2026-05-07 17:30 32.93864 -7.61056 3963 ft 200 kts 139°
2026-05-07 17:30 32.93188 -7.59685 3969 ft 192 kts 95°
2026-05-07 17:30 32.93473 -7.58190 3977 ft 183 kts 51°
2026-05-07 17:30 32.94523 -7.57410 3979 ft 180 kts
2026-05-07 17:31 32.95776 -7.57289 3895 ft 181 kts 19°
2026-05-07 17:31 32.96727 -7.56331 3885 ft 177 kts 45°
2026-05-07 17:31 32.97781 -7.55556 3956 ft 180 kts 10°
2026-05-07 17:31 32.99000 -7.55835 3971 ft 181 kts 334°
2026-05-07 17:32 33.00161 -7.56391 3979 ft 179 kts 355°
2026-05-07 17:32 33.01388 -7.56112 3983 ft 179 kts 18°
2026-05-07 17:32 33.02569 -7.55599 3986 ft 180 kts 19°
2026-05-07 17:32 33.03750 -7.55074 3983 ft 180 kts 19°
2026-05-07 17:33 33.04927 -7.54549 3982 ft 180 kts 19°
2026-05-07 17:33 33.06110 -7.54022 3977 ft 180 kts 19°
2026-05-07 17:33 33.07296 -7.53495 3974 ft 180 kts 19°
2026-05-07 17:33 33.08490 -7.52967 3977 ft 180 kts 19°
2026-05-07 17:34 33.09683 -7.52441 3971 ft 181 kts 19°
2026-05-07 17:34 33.10867 -7.51918 3972 ft 181 kts 19°
2026-05-07 17:34 33.12062 -7.51404 3970 ft 181 kts 14°
2026-05-07 17:34 33.13326 -7.51381 3968 ft 181 kts 350°
2026-05-07 17:35 33.14572 -7.51709 3977 ft 181 kts 347°
2026-05-07 17:35 33.15797 -7.52081 3975 ft 181 kts 345°
2026-05-07 17:35 33.17018 -7.52482 3976 ft 181 kts 345°
2026-05-07 17:35 33.18230 -7.52890 3959 ft 173 kts 344°
2026-05-07 17:36 33.19351 -7.53270 3740 ft 161 kts 345°
2026-05-07 17:36 33.20432 -7.53634 3566 ft 159 kts 344°
2026-05-07 17:36 33.21482 -7.53991 3373 ft 153 kts 345°
2026-05-07 17:36 33.22520 -7.54345 3164 ft 155 kts 345°
2026-05-07 17:37 33.23562 -7.54701 2962 ft 154 kts 345°
2026-05-07 17:37 33.24595 -7.55061 2810 ft 156 kts 346°
2026-05-07 17:37 33.25654 -7.55422 2690 ft 156 kts 345°
2026-05-07 17:37 33.26690 -7.55786 2555 ft 157 kts 347°
2026-05-07 17:38 33.27765 -7.56144 2336 ft 161 kts 346°
2026-05-07 17:38 33.28860 -7.56527 2069 ft 162 kts 346°
2026-05-07 17:38 33.29912 -7.56901 1844 ft 153 kts 346°
2026-05-07 17:38 33.30917 -7.57230 1586 ft 145 kts 349°
2026-05-07 17:39 33.31882 -7.57546 1331 ft 142 kts 345°
2026-05-07 17:39 33.32843 -7.57876 1100 ft 143 kts 346°
2026-05-07 17:39 33.33798 -7.58193 919 ft 137 kts 342°
2026-05-07 17:39 33.34686 -7.58501 748 ft 124 kts 346°
2026-05-07 17:40 33.35508 -7.58783 670 ft 117 kts 347°
2026-05-07 17:40 33.36166 -7.59011 650 ft 72 kts 346°
2026-05-07 17:40 33.36516 -7.59081 648 ft 36 kts
2026-05-07 17:40 33.36713 -7.59020 646 ft 14 kts 16°
2026-05-07 17:41 33.36773 -7.58971 646 ft 4 kts 80°
2026-05-07 17:41 33.36779 -7.58936 646 ft 1 kts 78°
2026-05-07 17:41 33.36782 -7.58922 646 ft 4 kts 74°
2026-05-07 17:41 33.36798 -7.58850 646 ft 12 kts 75°
2026-05-07 17:42 33.36833 -7.58717 644 ft 18 kts 71°
2026-05-07 17:42 33.36859 -7.58618 643 ft 11 kts 76°
2026-05-07 17:42 33.36880 -7.58520 643 ft 9 kts 75°
2026-05-07 17:42 33.36905 -7.58414 643 ft 16 kts 74°
2026-05-07 17:43 33.36939 -7.58277 643 ft 12 kts 73°
2026-05-07 17:43 33.36921 -7.58191 644 ft 14 kts 156°
2026-05-07 17:43 33.36793 -7.58146 644 ft 22 kts 164°
2026-05-07 17:43 33.36640 -7.58092 648 ft 20 kts 163°
2026-05-07 17:44 33.36504 -7.58102 648 ft 23 kts 208°
2026-05-07 17:44 33.36327 -7.58106 650 ft 27 kts 164°
2026-05-07 17:44 33.36171 -7.58054 652 ft 23 kts 164°
2026-05-07 17:44 33.36007 -7.57998 653 ft 23 kts 165°
2026-05-07 17:45 33.35825 -7.57935 653 ft 30 kts 164°
2026-05-07 17:45 33.35653 -7.57873 656 ft 13 kts 162°
2026-05-07 17:45 33.35649 -7.57782 656 ft 15 kts 74°
2026-05-07 17:45 33.35686 -7.57628 656 ft 22 kts 73°
2026-05-07 17:46 33.35733 -7.57435 656 ft 20 kts 73°
2026-05-07 17:46 33.35766 -7.57294 656 ft 17 kts 73°
2026-05-07 17:46 33.35786 -7.57213 656 ft 10 kts 73°
2026-05-07 17:46 33.35757 -7.57163 656 ft 1 kts 167°
2026-05-07 17:47 33.35736 -7.57141 656 ft 5 kts 75°
2026-05-07 17:47 33.35756 -7.57125 656 ft 2 kts 23°
2026-05-07 17:47 33.35763 -7.57150 656 ft 6 kts 232°
2026-05-07 17:47 33.35742 -7.57132 656 ft 1 kts 34°
2026-05-07 17:48 33.35755 -7.57125 656 ft 1 kts 23°
2026-05-07 17:48 33.35758 -7.57124 656 ft 0 kts 29°